Погода в Кадуе

Россия / Вологодская область     59°14′29″N   37°15′23″E
темп.,
°C
ветер,
м/с
пор.,
м/с
влажн.,
%
обл.,
%
осадки,
мм/ч
давл.,
гПа
погр.,
м
15 апреля, чт
чт1500:00+5ссв31087100 0.0 1022509
03:00+5ссв4108697 0.0 1022512
06:00+3ссв31091100 0.0 1023417
09:00+5ссв5980100 0.0 1025594
12:00+8св5763100 0.0 1025988
15:00+9св5762100 0.0 10261120
18:00+7св5967100 0.0 1027921
21:00+4св4127289 0.0 1028549
16 апреля, пт
пт1600:00+3всв4127675 0.0 1028498
03:00+2всв4137871 0.0 1029423
06:00+1всв4137981 0.0 1029416
09:00+5всв5116153 0.0 1030595
12:00+9всв584515 0.0 1030982
15:00+11всв574112 0.0 10301202
18:00+9всв484911 0.0 1030987
21:00+5всв3117218 0.0 1031284
17 апреля, сб
сб1700:00+3всв311745 0.0 1032291
03:00+2всв3107813 0.0 1032240
06:00+1всв310805 0.0 1033223
09:00+7всв48575 0.0 1033535
12:00+10всв46444 0.0 10321165
15:00+12всв45415 0.0 10311407
18:00+11всв35495 0.0 1031952
21:00+6св27745 0.0 1031119
18 апреля, вс
вс1800:00+4св38805 0.0 1032168
03:00+2св28830 0.0 1032145
06:00+2св288253 0.0 1032180
09:00+7всв365881 0.0 1032515
12:00+10всв4548100 0.0 10321127
15:00+11всв454498 0.0 10311285
18:00+10всв3653100 0.0 1031473
21:00+6всв2671100 0.0 1031121
19 апреля, пн
пн1900:00+5всв2777100 0.0 1032148
03:00+4в2788100 0.0 1033194
06:00+4в2686100 0.0 1033226
09:00+6в3562100 0.0 1033568
12:00+9вюв3447100 0.0 10331226
15:00+11вюв334248 0.0 10321547
18:00+9в33455 0.0 10311243
21:00+4вюв226174 0.0 103224